Home   Weather   33°51'N, 118°14'W   Past weeks
Flag for USA

Past Weather in 33°51'N, 118°14'W, USA — Yesterday and Last 2 Weeks

Now
65 °F

Sunny.


Feels Like: 65 °F
Forecast: 66 / 54 °F
Wind: 3 mph from North

Location: Los Angeles / USC Campus Downtown

Current Time: May 22, 2019 at 9:52:04 am

Latest Report: May 22, 2019 at 8:47 am


Visibility: 10 mi

Pressure: 29.71 "Hg

Humidity: 44%

Dew Point: 42 °F

Location of 33°51'N, 118°14'WLocation

Past Weather in 33°51'N, 118°14'W — Graph

°F

33°51'N, 118°14'W Temperature Yesterday

Maximum temperature yesterday: 67 °F (at 11:47 am)
Minimum temperature yesterday: 58 °F (at 12:04 am)
Average temperature yesterday: 62 °F

High & Low Weather Summary for the Past Weeks

 TemperatureHumidityPressure
High74 °F (May 11, 11:47 am)93% (May 16, 7:12 am)30.08 "Hg (May 16, 7:12 am)
Low52 °F (May 19, 4:04 am)35% (May 17, 10:47 am)29.70 "Hg (May 22, 5:47 am)
Average62 °F71%29.91 "Hg
* Reported May 7 7:47 am — May 22 7:47 am, 33°51'N, 118°14'W. Weather by CustomWeather, © 2019

Note: Actual official high and low records may vary slightly from our data, if they occured in-between our weather recording intervals... More about our weather records

Advertising

33°51'N, 118°14'W Weather History for the Previous 24 Hours

Scroll right to see more
 ConditionsComfort  
Time TempWeatherWind HumidityBarometerVisibility
7:47 am
Wed, May 22
62 °FSunny.No wind56%29.71 "Hg10 mi
6:47 am58 °FSunny.No wind72%29.71 "Hg10 mi
5:47 am57 °FSunny.3 mph72%29.70 "Hg10 mi
4:47 am57 °FClear.No wind74%29.70 "Hg10 mi
3:47 am59 °FClear.5 mph67%29.70 "Hg10 mi
1:47 am59 °FOvercast.No wind72%29.72 "Hg10 mi
12:47 am61 °FPassing clouds.No wind62%29.74 "Hg10 mi
11:47 pm
Tue, May 21
61 °FPassing clouds.No wind65%29.76 "Hg10 mi
10:47 pm62 °FOvercast.6 mph62%29.76 "Hg10 mi
9:47 pm62 °FPassing clouds.7 mph62%29.76 "Hg10 mi
8:47 pm63 °FPassing clouds.5 mph60%29.75 "Hg10 mi
7:47 pm63 °FSunny.No wind60%29.74 "Hg10 mi
6:47 pm65 °FSunny.No wind56%29.74 "Hg10 mi
5:47 pm66 °FBroken clouds.5 mph54%29.76 "Hg10 mi
4:47 pm65 °FScattered clouds.3 mph56%29.78 "Hg10 mi
3:47 pm65 °FPassing clouds.10 mph56%29.80 "Hg10 mi
2:47 pm66 °FSunny.N/A52%29.83 "Hg10 mi
1:47 pm65 °FSunny.N/A56%29.84 "Hg10 mi
12:47 pm65 °FSunny.6 mph56%29.86 "Hg10 mi
11:47 am67 °FSunny.N/A53%29.87 "Hg10 mi
10:47 am65 °FBroken clouds.3 mph61%29.88 "Hg10 mi
9:52 am64 °FScattered clouds.5 mph65%29.90 "Hg10 mi
9:16 am61 °FCloudy.No wind72%29.91 "Hg10 mi
9:13 am61 °FCloudy.No wind72%29.92 "Hg10 mi
Weather by CustomWeather, © 2019

See weather overview